"TOA5","AWS1","CR1000","7964","CR1000.Std.14","CPU:AWS1_114.CR1","64363","TBL110"
"TIMESTAMP","RECORD","Wind_spd_WVc(1)","Wind_spd_WVc(2)","Air_Temp_Avg","Humidity_Avg","SW_upper_Wm2_Avg","Rain_Tot","Press_Avg","Issui_Tot","Depth_cm","SR50A_Raw","Quality","Ground_Temp_Avg(1)","Ground_Temp_Avg(2)","SW_lower_Wm2_Avg","Albedo_Avg","SWC_per(1)","SWC_per(2)","Period(1)","Period(2)"
"TS","RN","","","","","","","","","","","","","","","","","","",""
"","","WVc","WVc","Avg","Avg","Avg","Tot","Avg","Tot","Smp","Smp","Smp","Avg","Avg","Avg","Avg","Smp","Smp","Smp","Smp"
"2018-05-11 00:00:00",340045,0.398,308.6,4.216,42.18,0,0,868.6943,0,-2.271,3.182,188,9.6,9.82,1.779117,0,51.88,59.67,33.76,35.6
"2018-05-11 00:10:00",340046,0.276,306.5,2.396,65.05,0,0,868.6964,0,-2.171,3.192,194,9.51,9.83,0.003793427,0,51.88,59.67,33.76,35.6
"2018-05-11 00:20:00",340047,0.174,197.8,0.878,76.22,0,0,868.6931,0,-2.141,3.198,180,9.5,9.79,0,0,51.94,59.67,33.77,35.6
"2018-05-11 00:30:00",340048,0.383,16.98,1.807,59.53,0,0,868.6934,0,-2.322,3.185,181,9.44,9.78,0.7776526,0,51.88,59.61,33.76,35.59
"2018-05-11 00:40:00",340049,0.772,32.91,3.422,50.92,0,0,868.6766,0,-1.315,3.173,199,9.42,9.78,1.536338,0,51.88,59.61,33.76,35.59
"2018-05-11 00:50:00",340050,0.532,31.4,3.644,48.02,0,0,868.6778,0,-2.547,3.183,199,9.43,9.79,0.7662722,0,51.88,59.61,33.76,35.59
"2018-05-11 01:00:00",340051,0.278,24.66,4.096,42.82,0,0,868.6476,0,-3.023,3.185,178,9.35,9.79,0.7852393,0,51.94,59.61,33.77,35.59
"2018-05-11 01:10:00",340052,0.285,13.32,4.301,40.86,0,0,868.7786,0,-2.319,3.18,188,9.31,9.77,0.4703848,0,51.88,59.61,33.76,35.59
"2018-05-11 01:20:00",340053,0.297,41.77,4.012,42.25,0,0,868.6258,0,-2.867,3.185,190,9.33,9.76,0.02655343,0,51.94,59.61,33.77,35.59
"2018-05-11 01:30:00",340054,0.372,34.81,4.131,41.38,0,0,868.6033,0,-1.523,3.171,197,9.26,9.76,0.2351771,0,51.94,59.61,33.77,35.59
"2018-05-11 01:40:00",340055,0.597,26.54,4.263,40.36,0,0,868.6024,0,-2.651,3.182,194,9.17,9.74,0.2617156,0,51.94,59.56,33.77,35.58
"2018-05-11 01:50:00",340056,0.623,33.01,4.08,41.1,0,0,868.6022,0,-3.449,3.191,193,9.19,9.73,0,0,51.88,59.56,33.76,35.58
"2018-05-11 02:00:00",340057,0.575,41.08,3.838,42.59,0,0,868.6022,0,-3.49,3.193,198,9.09,9.71,0,0,51.88,59.56,33.76,35.58
"2018-05-11 02:10:00",340058,0.634,41.37,4.076,42.12,0,0,868.6105,0,-3.181,3.188,194,9.03,9.7,0.06447057,0,51.88,59.56,33.76,35.58
"2018-05-11 02:20:00",340059,0.572,37.15,4.404,38.17,0,0,868.6105,0,-3.73,3.191,184,9.05,9.69,0.333716,0,51.88,59.56,33.76,35.58
"2018-05-11 02:30:00",340060,0.328,21.6,4.544,36.85,0,0,868.8045,0,-2.923,3.185,218,8.97,9.69,0.2730364,0,51.94,59.56,33.77,35.58
"2018-05-11 02:40:00",340061,0.027,79.18,2.186,57.05,0,0,868.8551,0,-3.57,3.21,185,8.96,9.69,0,0,51.94,59.56,33.77,35.58
"2018-05-11 02:50:00",340062,0.63,46.97,2.227,48.99,0,0,868.8699,0,-2.873,3.186,194,8.96,9.67,0.4436797,0,51.94,59.56,33.77,35.58
"2018-05-11 03:00:00",340063,0.79,52.37,4.357,38.82,0,0,868.8867,0,-1.458,3.168,272,8.86,9.65,1.058005,0,51.88,59.56,33.76,35.58
"2018-05-11 03:10:00",340064,0.398,35.04,4.734,34.23,0,0,868.8782,0,-4.484,3.2,208,8.87,9.64,0.5422752,0,51.88,59.56,33.76,35.58
"2018-05-11 03:20:00",340065,0.093,53.38,3.01,47.9,0,0,868.9415,0,-3.878,3.203,210,8.87,9.58,0,0,51.94,59.56,33.77,35.58
"2018-05-11 03:30:00",340066,0.177,54.38,3.002,49.82,0,0,869.0048,0,-4.482,3.208,219,8.79,9.6,0.04550561,0,51.94,59.5,33.77,35.56
"2018-05-11 03:40:00",340067,0.19,195.8,2.126,54.65,0,0,868.9794,0,-3.674,3.206,196,8.82,9.6,0,0,51.94,59.5,33.77,35.56
"2018-05-11 03:50:00",340068,0.268,183.1,1.802,58.15,0,0,868.8909,0,-3.725,3.207,225,8.75,9.6,0,0,51.88,59.5,33.76,35.56
"2018-05-11 04:00:00",340069,0.323,188.5,1.846,60.23,0,0,868.9583,0,-3.674,3.206,198,8.73,9.6,0,0,51.88,59.5,33.76,35.56
"2018-05-11 04:10:00",340070,0.154,190.7,2.047,55.89,0,0,869.108,0,-3.927,3.209,188,8.66,9.57,0.1971921,0,51.88,59.56,33.76,35.58
"2018-05-11 04:20:00",340071,0.145,163.1,2.349,54.27,0,0,869.1207,0,-2.977,3.19,220,8.65,9.55,0.5953749,0,51.88,59.5,33.76,35.56
"2018-05-11 04:30:00",340072,0.366,69.99,4.179,44.96,0,0,869.108,0,-3.381,3.185,193,8.66,9.53,2.161619,0,51.88,59.5,33.76,35.56
"2018-05-11 04:40:00",340073,0.228,141.2,4.87,43.24,0,0,868.8951,0,-1.928,3.177,210,8.67,9.53,1.691414,0,51.88,59.5,33.76,35.56
"2018-05-11 04:50:00",340074,0.582,173.6,5.027,41.81,0.9164413,0,868.8593,0,-3.431,3.185,197,8.64,9.53,1.695201,1.063,51.94,59.5,33.77,35.56
"2018-05-11 05:00:00",340075,0.335,203.1,5.671,39.04,3.732512,0,869.0701,0,-1.545,3.159,221,8.54,9.52,1.827869,0.501,51.88,59.5,33.76,35.56
"2018-05-11 05:10:00",340076,0.253,146.6,5.314,41.97,9.010549,0,869.108,0,-2.468,3.178,198,8.54,9.52,1.592717,0.187,51.88,59.44,33.76,35.55
"2018-05-11 05:20:00",340077,0.829,186.2,5.424,39.55,15.98367,0,869.0637,0,-2.729,3.17,178,8.56,9.51,3.280208,0.206,51.88,59.5,33.76,35.56
"2018-05-11 05:30:00",340078,0.832,189.7,6.407,36.49,16.74661,0,869.0891,0,-0.888,3.154,268,8.52,9.51,3.132305,0.19,51.88,59.5,33.76,35.56
"2018-05-11 05:40:00",340079,0.649,213.3,6.746,34.04,28.0303,0,869.108,0,0.241,3.137,305,8.4,9.51,4.717415,0.167,51.94,59.44,33.77,35.55
"2018-05-11 05:50:00",340080,0.285,163.4,6.141,39.23,41.06416,0,869.1776,0,-0.589,3.153,204,8.39,9.51,6.621066,0.163,51.88,59.44,33.76,35.55
"2018-05-11 06:00:00",340081,0.551,162.9,6.481,37.24,90.06507,0,869.3061,0,-1.128,3.151,203,8.39,9.51,16.35168,0.195,51.94,59.5,33.77,35.56
"2018-05-11 06:10:00",340082,0.287,164,6.938,39.69,58.37711,0,869.3539,0,-0.396,3.145,209,8.39,9.47,17.18595,0.301,51.88,59.5,33.76,35.56
"2018-05-11 06:20:00",340083,0.411,240.4,7.103,40.99,143.0029,0,869.3384,0,0.438,3.137,250,8.4,9.44,25.20632,0.181,51.88,59.5,33.76,35.56
"2018-05-11 06:30:00",340084,0.247,313.6,6.707,46.38,197.2729,0,869.522,0,-0.197,3.145,232,8.34,9.43,33.9318,0.185,51.88,59.44,33.76,35.55
"2018-05-11 06:40:00",340085,0.047,339.4,6.671,51.46,138.3086,0,869.5271,0,-2.562,3.169,200,8.29,9.41,24.43536,0.181,51.88,59.44,33.76,35.55
"2018-05-11 06:50:00",340086,0.351,79.27,6.157,51.34,184.7318,0,869.5226,0,-3.025,3.174,184,8.24,9.38,27.93587,0.159,51.88,59.44,33.76,35.55
"2018-05-11 07:00:00",340087,0.434,130.1,6.447,51.34,151.2933,0,869.5215,0,-3.262,3.174,189,8.23,9.36,30.14693,0.235,51.88,59.44,33.76,35.55
"2018-05-11 07:10:00",340088,0.652,134.8,6.793,48.23,97.72311,0,869.5212,0,-2.671,3.166,198,8.22,9.34,30.30474,0.312,51.94,59.44,33.77,35.55
"2018-05-11 07:20:00",340089,0.395,140.9,7.37,42.28,113.4008,0,869.7318,0,-1.037,3.146,238,8.21,9.34,31.468,0.281,51.88,59.44,33.76,35.55
"2018-05-11 07:30:00",340090,0.377,124.2,7.975,44.46,104.4007,0,869.6855,0,-3.26,3.165,190,8.21,9.34,32.03265,0.306,51.88,59.44,33.76,35.55
"2018-05-11 07:40:00",340091,0.312,10.38,8.16,42.85,129.7595,0,869.7516,0,-2.652,3.159,203,8.18,9.34,31.50567,0.257,51.88,59.44,33.76,35.55
"2018-05-11 07:50:00",340092,0.141,13.26,8.72,43.18,497.3197,0,869.7653,0,-3.271,3.16,199,8.13,9.32,41.2974,0.093,51.88,59.44,33.76,35.55
"2018-05-11 08:00:00",340093,0.315,314.2,9.5,36.82,636.8925,0,869.8431,0,-1.658,3.141,186,8.14,9.28,72.01456,0.113,51.94,59.44,33.77,35.55
"2018-05-11 08:10:00",340094,0.47,310.4,9.94,35.69,672.2178,0,869.8515,0,-1.474,3.138,203,8.17,9.31,96.33274,0.143,51.94,59.38,33.77,35.54
"2018-05-11 08:20:00",340095,0.4,310.2,10.02,39.09,704.405,0,869.9303,0,-0.736,3.13,215,8.1,9.27,108.0352,0.153,51.88,59.44,33.76,35.55
"2018-05-11 08:30:00",340096,0.404,325.7,10.33,37.27,727.636,0,869.9357,0,-0.172,3.122,221,8.09,9.23,112.7268,0.155,51.88,59.44,33.76,35.55
"2018-05-11 08:40:00",340097,0.513,335.4,10.65,33.85,744.5129,0,869.9258,0,-1.43,3.133,203,8.09,9.21,113.2709,0.152,51.88,59.44,33.76,35.55
"2018-05-11 08:50:00",340098,0.528,334.8,10.79,32.73,784.7994,0,869.9044,0,-1.263,3.131,200,8.07,9.16,116.6643,0.149,51.88,59.44,33.76,35.55
"2018-05-11 09:00:00",340099,0.631,354.5,10.95,31.84,846.0391,0,869.8687,0,-0.941,3.127,202,8.05,9.09,124.8232,0.147,51.88,59.38,33.76,35.54
"2018-05-11 09:10:00",340100,0.688,333.1,11.21,29.23,795.4225,0,869.8499,0,-0.407,3.12,213,8.03,9.07,120.2353,0.15,51.88,59.38,33.76,35.54
"2018-05-11 09:20:00",340101,0.452,358.5,11.31,31.59,580.2733,0,869.7193,0,-0.153,3.119,221,8.03,9.06,90.63103,0.155,51.88,59.38,33.76,35.54
"2018-05-11 09:30:00",340102,0.197,318.7,11.61,32,669.2793,0,869.5953,0,-0.992,3.121,236,8.01,9.05,103.6221,0.154,51.82,59.38,33.75,35.54
"2018-05-11 09:40:00",340103,0.417,55.44,12.24,34.1,738.0036,0,869.601,0,-1.167,3.121,211,8.1,9.04,115.1501,0.155,51.88,59.32,33.76,35.52
"2018-05-11 09:50:00",340104,0.329,44.82,12.52,31.94,769.6033,0,869.5643,0,-1.085,3.118,214,8.11,9,119.577,0.155,51.88,59.38,33.76,35.54
"2018-05-11 10:00:00",340105,0.49,8.49,12.76,31.42,857.05,0,869.4296,0,-0.652,3.114,225,8.07,8.93,135.5119,0.158,51.88,59.38,33.76,35.54
"2018-05-11 10:10:00",340106,0.49,344.8,13,33.85,925.6868,0,869.3689,0,-2.063,3.124,199,8.06,8.91,148.0693,0.16,51.88,59.38,33.76,35.54
"2018-05-11 10:20:00",340107,0.401,327.9,13.29,35.58,823.8181,0,869.3528,0,-1.22,3.116,231,8.15,8.94,131.9928,0.16,51.88,59.38,33.76,35.54
"2018-05-11 10:30:00",340108,0.681,336,13.25,31.82,896.049,0,869.3498,0,-0.249,3.107,219,8.19,8.97,148.2543,0.165,51.88,59.38,33.76,35.54
"2018-05-11 10:40:00",340109,0.755,353.8,13.48,28.42,825.9031,0,869.3572,0,-1.16,3.114,245,8.13,8.96,158.4843,0.192,51.88,59.32,33.76,35.52
"2018-05-11 10:50:00",340110,0.68,3.857,13.57,22.79,898.5831,0,869.3625,0,-3.165,3.134,195,8.22,8.91,170.8355,0.192,51.88,59.32,33.76,35.52
"2018-05-11 11:00:00",340111,0.701,7.07,13.7,21.51,1048.601,0,869.2025,0,-1.155,3.112,217,8.29,8.88,177.1483,0.169,51.82,59.32,33.75,35.52
"2018-05-11 11:10:00",340112,0.666,348.3,14.16,26.89,1056.374,0,869.1325,0,-1.154,3.111,220,8.33,8.85,179.4839,0.17,51.88,59.32,33.76,35.52
"2018-05-11 11:20:00",340113,0.47,306.6,14.61,26.53,1064.92,0,869.1309,0,-2.678,3.123,218,8.44,8.84,182.1104,0.171,51.82,59.32,33.75,35.52
"2018-05-11 11:30:00",340114,0.516,16.57,15.07,19.61,1083.252,0,869.1324,0,-1.292,3.106,213,8.5,8.84,187.618,0.173,51.88,59.32,33.76,35.52
"2018-05-11 11:40:00",340115,0.419,344.9,15.4,22.5,1077.136,0,868.9673,0,0.117,3.093,229,8.58,8.84,186.8746,0.173,51.82,59.32,33.75,35.52
"2018-05-11 11:50:00",340116,0.503,82.9,15.91,24.26,1065.723,0,868.8702,0,-0.759,3.098,210,8.66,8.84,186.2727,0.175,51.82,59.32,33.75,35.52
"2018-05-11 12:00:00",340117,0.656,43.05,16.14,22.11,1107.204,0,868.7201,0,-0.375,3.095,214,8.76,8.84,195.2009,0.176,51.82,59.32,33.75,35.52
"2018-05-11 12:10:00",340118,0.729,67.51,16.38,21.43,1125.586,0,868.7264,0,-0.787,3.099,211,8.85,8.84,198.8019,0.177,51.82,59.32,33.75,35.52
"2018-05-11 12:20:00",340119,0.641,132.9,16.08,20.86,1110.114,0,868.6572,0,-2.258,3.111,200,8.95,8.84,197.8861,0.178,51.82,59.32,33.75,35.52
"2018-05-11 12:30:00",340120,0.746,308.1,16,22.43,1084.051,0,868.6638,0,-1.168,3.102,197,9.06,8.84,193.7786,0.179,51.77,59.32,33.73,35.52
"2018-05-11 12:40:00",340121,0.748,7.039,16.27,20.55,1079.787,0,868.6201,0,-1.116,3.098,198,9.18,8.85,192.2527,0.178,51.77,59.32,33.73,35.52
"2018-05-11 12:50:00",340122,0.563,286.9,16.28,19.81,1063.531,0,868.6172,0,-0.254,3.091,207,9.28,8.85,188.8775,0.178,51.77,59.26,33.73,35.51
"2018-05-11 13:00:00",340123,0.912,296.9,16.18,18.51,1023.589,0,868.478,0,-0.834,3.099,219,9.41,8.84,183.1238,0.179,51.71,59.32,33.72,35.52
"2018-05-11 13:10:00",340124,0.523,287,16.29,20.42,976.4174,0,868.3823,0,-0.822,3.097,211,9.51,8.83,174.5473,0.179,51.77,59.26,33.73,35.51
"2018-05-11 13:20:00",340125,0.571,258.4,16.37,22.14,941.8292,0,868.29,0,-1.338,3.102,199,9.63,8.85,167.7628,0.178,51.71,59.26,33.72,35.51
"2018-05-11 13:30:00",340126,0.559,334.7,16.64,21.11,949.1565,0,868.1561,0,-1.102,3.099,224,9.77,8.85,169.2864,0.178,51.71,59.26,33.72,35.51
"2018-05-11 13:40:00",340127,0.559,189.3,16.8,21.93,908.1771,0,868.1271,0,-1.367,3.099,204,9.88,8.85,156.7122,0.173,51.66,59.26,33.7,35.51
"2018-05-11 13:50:00",340128,0.665,272.3,17.07,22.96,929.0818,0,868.0726,0,-2.233,3.106,206,9.96,8.83,159.9832,0.172,51.66,59.26,33.7,35.51
"2018-05-11 14:00:00",340129,0.49,275.9,17.24,22.61,895.4957,0,867.8932,0,-2.114,3.106,204,10.11,8.81,149.3123,0.167,51.71,59.26,33.72,35.51
"2018-05-11 14:10:00",340130,0.447,349.2,17.34,22.56,894.5625,0,867.8729,0,-0.387,3.086,216,10.2,8.81,142.8825,0.16,51.71,59.26,33.72,35.51
"2018-05-11 14:20:00",340131,0.53,271.1,17.36,25.83,862.8079,0,867.865,0,-0.964,3.093,239,10.32,8.78,131.8327,0.153,51.66,59.26,33.7,35.51
"2018-05-11 14:30:00",340132,0.436,155.6,17.55,28.89,834.0472,0,867.8704,0,-1.12,3.095,216,10.45,8.76,118.1651,0.142,51.66,59.26,33.7,35.51
"2018-05-11 14:40:00",340133,0.439,74.73,17.41,28.21,799.3668,0,867.7814,0,-2.884,3.11,205,10.51,8.77,99.68497,0.125,51.66,59.2,33.7,35.5
"2018-05-11 14:50:00",340134,0.387,1.957,17.35,27.81,710.2389,0,867.7365,0,-2.278,3.106,199,10.61,8.77,75.15941,0.106,51.6,59.2,33.69,35.5
"2018-05-11 15:00:00",340135,0.327,142.8,17,26.37,625.1289,0,867.7379,0,-2.378,3.11,208,10.72,8.81,53.03623,0.084,51.6,59.2,33.69,35.5
"2018-05-11 15:10:00",340136,0.359,173.2,16.46,26.63,421.6115,0,867.6232,0,-1.76,3.107,225,10.83,8.86,36.86734,0.109,51.55,59.2,33.68,35.5
"2018-05-11 15:20:00",340137,0.311,137.6,16.11,26.69,166.2725,0,867.6393,0,-1.763,3.107,195,10.89,8.9,30.82374,0.186,51.55,59.2,33.68,35.5
"2018-05-11 15:30:00",340138,0.282,183.4,16.15,28.55,135.8615,0,867.7328,0,-0.076,3.092,252,11,8.91,26.20078,0.193,51.6,59.2,33.69,35.5
"2018-05-11 15:40:00",340139,0.237,217.6,16.18,26.45,109.0731,0,867.8358,0,-0.631,3.096,203,11.1,8.86,21.46394,0.197,51.55,59.2,33.68,35.5
"2018-05-11 15:50:00",340140,0.423,89.5,16.11,25.65,90.84849,0,867.8483,0,-0.954,3.101,233,11.18,8.87,16.34808,0.179,51.49,59.14,33.66,35.48
"2018-05-11 16:00:00",340141,0.255,113.9,15.7,24.31,102.0105,0,867.7834,0,-0.447,3.097,229,11.24,8.91,17.4281,0.171,51.55,59.2,33.68,35.5
"2018-05-11 16:10:00",340142,0.422,39.56,15.79,24.64,95.81245,0,867.752,0,-2.757,3.119,196,11.35,8.98,16.29503,0.17,51.49,59.14,33.66,35.48
"2018-05-11 16:20:00",340143,0.675,17.58,15.55,24.78,99.34578,0,867.7689,0,-3.205,3.125,194,11.35,9.03,16.07902,0.162,51.49,59.14,33.66,35.48
"2018-05-11 16:30:00",340144,0.111,152.5,15.3,26.12,108.4483,0,867.712,0,-3.338,3.127,194,11.45,9.06,16.56408,0.153,51.44,59.14,33.65,35.48
"2018-05-11 16:40:00",340145,0.019,204.7,15.19,30.26,119.3195,0,867.6825,0,-1.289,3.108,235,11.51,9.04,18.26938,0.153,51.44,59.14,33.65,35.48
"2018-05-11 16:50:00",340146,0.058,352.6,15.05,32.7,139.3718,0,867.8362,0,-0.546,3.101,262,11.54,9.03,22.24082,0.16,51.44,59.14,33.65,35.48
"2018-05-11 17:00:00",340147,0.034,295.5,15.01,33.43,127.2587,0,867.8088,0,-0.269,3.099,280,11.6,9.09,19.65256,0.154,51.44,59.14,33.65,35.48
"2018-05-11 17:10:00",340148,0.066,157.4,14.81,33.28,95.45086,0,867.7941,0,-0.228,3.1,249,11.65,9.13,13.58929,0.142,51.44,59.08,33.65,35.47
"2018-05-11 17:20:00",340149,0.069,337.8,14.47,32.87,77.50126,0,867.7773,0,0.423,3.096,271,11.63,9.18,10.64482,0.137,51.38,59.08,33.64,35.47
"2018-05-11 17:30:00",340150,0.034,264.4,14.04,34.23,77.47375,0,867.891,0,-0.151,3.103,253,11.63,9.18,11.09957,0.143,51.38,59.14,33.64,35.48
"2018-05-11 17:40:00",340151,0.024,264.3,13.71,36,69.71536,0,867.91,0,-0.219,3.106,252,11.63,9.16,10.28102,0.147,51.38,59.08,33.64,35.47
"2018-05-11 17:50:00",340152,0.116,47.43,13.66,35.39,70.42282,0,867.9268,0,-2.466,3.127,199,11.64,9.2,10.89114,0.155,51.33,59.14,33.62,35.48
"2018-05-11 18:00:00",340153,0.006,188.3,13.56,35.29,44.49081,0,868.0764,0,-3.326,3.138,184,11.67,9.24,6.142846,0.137,51.33,59.14,33.62,35.48
"2018-05-11 18:10:00",340154,0.1,57.28,13.15,36.26,27.49626,0,868.1649,0,-3.819,3.144,179,11.69,9.28,3.528063,0.128,51.33,59.08,33.62,35.47
"2018-05-11 18:20:00",340155,0.05,97.6,12.87,37.52,22.63057,0,868.3038,0,-4.242,3.151,180,11.68,9.29,3.111213,0.137,51.33,59.08,33.62,35.47
"2018-05-11 18:30:00",340156,0.07,108,12.4,38.96,14.62861,0,868.3333,0,-3.591,3.147,192,11.7,9.35,1.860675,0.124,51.33,59.08,33.62,35.47
"2018-05-11 18:40:00",340157,0.205,184.6,11.97,40.11,3.560962,0,868.3902,0,-3.196,3.144,192,11.73,9.35,0.1136893,0.017,51.33,59.08,33.62,35.47
"2018-05-11 18:50:00",340158,0.023,177.4,11.73,40.59,0,0,868.4028,0,-2.707,3.141,192,11.7,9.36,0,0,51.27,59.08,33.61,35.47
"2018-05-11 19:00:00",340159,0.235,117.2,11.19,43.69,0,0,868.4133,0,-2.761,3.145,193,11.7,9.39,0,0,51.27,59.08,33.61,35.47
"2018-05-11 19:10:00",340160,0.199,138.3,10.64,48.9,0,0,868.4176,0,-2.557,3.147,179,11.74,9.45,0,0,51.27,59.08,33.61,35.47
"2018-05-11 19:20:00",340161,0.056,164.7,10.08,51.16,0,0,868.4323,0,-1.958,3.143,188,11.72,9.56,0,0,51.27,59.03,33.61,35.45
"2018-05-11 19:30:00",340162,0.155,174.8,9.99,49.91,0,0,868.466,0,-2.166,3.146,179,11.71,9.58,0,0,51.21,59.03,33.6,35.45
"2018-05-11 19:40:00",340163,0.062,186.3,9.98,48.51,0,0,868.6302,0,-2.621,3.15,170,11.71,9.55,0.1213049,0,51.27,59.03,33.61,35.45
"2018-05-11 19:50:00",340164,0.063,183.1,9.61,51.93,0,0,868.6791,0,-2.885,3.155,192,11.65,9.53,0.0644436,0,51.27,59.03,33.61,35.45
"2018-05-11 20:00:00",340165,0.046,184.1,9.35,51.01,0,0,868.9008,0,-2.657,3.153,193,11.62,9.52,0.0492807,0,51.21,59.03,33.6,35.45
"2018-05-11 20:10:00",340166,0,0,9.55,47.93,0,0,869.0979,0,-2.83,3.153,185,11.63,9.65,0.3942466,0,51.21,59.03,33.6,35.45
"2018-05-11 20:20:00",340167,0.089,188,9.58,48.29,0,0,869.2569,0,-3.271,3.16,184,11.52,9.68,0.299476,0,51.21,58.97,33.6,35.44
"2018-05-11 20:30:00",340168,0.219,294.2,9.5,47.45,0,0,869.2971,0,-3.578,3.156,195,11.55,9.68,0.5610438,0,51.21,58.97,33.6,35.44
"2018-05-11 20:40:00",340169,0.076,218.8,9.8,47.4,0,0,869.4885,0,-2.542,3.148,194,11.48,9.65,0.3373844,0,51.21,58.97,33.6,35.44
"2018-05-11 20:50:00",340170,0.098,166.8,9.29,50.27,0,0,869.5187,0,-4.14,3.17,189,11.45,9.63,0.1061434,0,51.16,58.97,33.58,35.44
"2018-05-11 21:00:00",340171,0.253,154.2,8.5,53.42,0,0,869.5352,0,-4.269,3.172,193,11.45,9.72,0.06823505,0,51.21,58.97,33.6,35.44
"2018-05-11 21:10:00",340172,0.158,173,8.71,51.36,0,0,869.5757,0,-3.911,3.168,187,11.37,9.77,0.06444422,0,51.21,58.97,33.6,35.44
"2018-05-11 21:20:00",340173,0.296,173.5,8.79,50.96,0,0,869.6896,0,-3.77,3.171,192,11.38,9.77,0.2615677,0,51.16,58.91,33.58,35.43
"2018-05-11 21:30:00",340174,0.241,171.6,7.837,57.23,0,0,869.7739,0,-4.232,3.178,188,11.32,9.77,0,0,51.21,58.91,33.6,35.43
"2018-05-11 21:40:00",340175,0.494,177.1,7.423,58.59,0,0,869.7739,0,-3.779,3.175,192,11.31,9.77,0,0,51.16,58.91,33.58,35.43
"2018-05-11 21:50:00",340176,0.517,186.4,7.512,56.69,0,0,869.7739,0,-3.572,3.171,196,11.18,9.81,0.06444422,0,51.21,58.91,33.6,35.43
"2018-05-11 22:00:00",340177,0.517,182.5,7.541,55.98,0,0,869.7697,0,-3.984,3.177,193,11.24,9.84,0.04928087,0,51.16,58.91,33.58,35.43
"2018-05-11 22:10:00",340178,0.538,182.6,7.311,57.6,0,0,869.7422,0,-4.287,3.18,188,11.19,9.87,0,0,51.16,58.91,33.58,35.43
"2018-05-11 22:20:00",340179,0.223,184.4,7.394,56.24,0,0,869.6622,0,-3.654,3.174,190,11.14,9.86,0.03790858,0,51.16,58.85,33.58,35.41
"2018-05-11 22:30:00",340180,0.482,190.1,7.475,55.91,0,0,869.7697,0,-4.116,3.178,193,11.07,9.86,0.2047135,0,51.21,58.85,33.6,35.41
"2018-05-11 22:40:00",340181,0.385,185.1,7.331,56.09,0,0,869.7781,0,-3.87,3.176,193,11.09,9.88,0.01516469,0,51.16,58.85,33.58,35.41
"2018-05-11 22:50:00",340182,0.494,184.5,7.33,55.05,0,0,869.7655,0,-3.427,3.173,193,11.02,9.89,0.05307675,0,51.16,58.85,33.58,35.41
"2018-05-11 23:00:00",340183,0.504,196.8,7.379,53.91,0,0,869.7381,0,-3.581,3.172,209,11.03,9.91,0.2312865,0,51.21,58.85,33.6,35.41
"2018-05-11 23:10:00",340184,0.613,183.9,7.12,55.59,0,0,869.7718,0,-3.344,3.173,198,10.98,9.92,0.01137488,0,51.16,58.85,33.58,35.41
"2018-05-11 23:20:00",340185,0.59,186.7,6.731,57.88,0,0,869.6263,0,-3.049,3.171,203,10.94,9.93,0,0,51.21,58.85,33.6,35.41
"2018-05-11 23:30:00",340186,0.638,185.1,6.812,57.49,0,0,869.5294,0,-2.567,3.165,218,10.97,9.94,0.091009,0,51.21,58.85,33.6,35.41
"2018-05-11 23:40:00",340187,0.673,185.8,6.985,56.36,0,0,869.5211,0,-1.81,3.158,251,10.93,9.95,0.08721723,0,51.21,58.85,33.6,35.41
"2018-05-11 23:50:00",340188,0.679,191.9,6.787,58.04,0,0,869.5211,0,-0.666,3.147,304,10.89,9.98,0,0,51.16,58.79,33.58,35.4
